Terug naar catalogus

UO-11

OSCAR 11

ActiefAmateurradioSSO
NORAD 14781·PAYLOAD·🇬🇧 United Kingdom

Gelanceerd Mar 1, 1984 vanaf Vandenberg Space Force Base

Loading…

Volgende Passages (komende 24 uur)

TLE

VersSource: Space-Track

Epoch: Sep 14, 2026, 14:51 UTC

1 14781U 84021B   26257.61916841  .00000985  00000-0  10536-3 0  9994
2 14781  97.8169 222.2563 0006105 243.8111 116.2480 14.90990555270454

Volg UO-11 in realtime met AllMySat

Download on the App Store